Torna al catalogo

COSMOS 2251 DEB

AttivoVLEO
NORAD 34301·DEBRIS·🇷🇺 Russia

Lanciato Jun 16, 1993 da Plesetsk Cosmodrome

Loading…

Prossimi Passaggi (prossime 24 ore)

TLE

AggiornatoSource: Space-Track

Epoca: Sep 14, 2026, 04:31 UTC

1 34301U 93036MX  26257.18859895  .00020117  00000-0  16249-2 0  9992
2 34301  74.0021 332.2225 0013211 331.5629  56.9932 14.99714879925103

Traccia COSMOS 2251 DEB in tempo reale con AllMySat

Download on the App Store